User: anonymous   Login
Location: Lake Runnemede Observatory
(43.4843°N, 72.3851°W)
Time: 12:53:52
(UTC-05:00)
Language:

SPOT 5 - Orbit

View from above orbital plane
View from above orbital plane
View from above satellite
View from above satellite

Ground track
Ground track

The orbit data is extracted from the following two-line orbital elements,

1 27421U 02021A   16341.38093793  .00000093  00000-0  32297-4 0  9997
2 27421  98.4340  38.2005 0134660 198.2503 161.3828 14.51832609757694
Epoch (UTC): 06 December 2016 09:08:33
Eccentricity: 0.0134660
inclination: 98.4340°
perigee height: 624 km
apogee height: 815 km
right ascension of ascending node: 38.2005°
argument of perigee: 198.2503°
revolutions per day: 14.51832609
mean anomaly at epoch: 161.3828°
orbit number at epoch: 75769

The dashed part of the orbit path shows where the satellite is in the earth's shadow,  

DLR